Tracking 28895 objects as of 28-May-2024
HD Live streaming from Space Station
objects crossing your sky now

STARLINK-5120

Track STARLINK-5120 now!
10-day predictions
STARLINK-5120 is classified as:


NORAD ID: 53982
Int'l Code: 2022-125U
Perigee: 546.0 km
Apogee: 547.7 km
Inclination: 53.2 °
Period: 95.4 minutes
Semi major axis: 6917 km
RCS: Unknown
Launch date: October 5, 2022
Source: United States (US)
Launch site: AIR FORCE WESTERN TEST RANGE (AFWTR)
Your satellite tracking list
Your tracking list is empty




NASA's NSSDC Master Catalog

Two Line Element Set (TLE):
1 53982U 22125U   24149.15669011  .00014551  00000-0  93015-3 0  9995
2 53982  53.2161 254.5146 0001211  87.1046 273.0085 15.08850705 91324
Source of the keplerian elements: AFSPC